Temp
5 5 5 6 6 6 6 6 6 6 6 6 6 6 6 6 6 6 6 6 6 6 6 6 6 6 6 7 6 6 6 6 6 6 6 7 7 7 7 7 7 6 6 6 6 6 5
5 5 5 6 6 6 6 6 6 6 5 6 6 6 6 6 6 6 6 6 6 6 6 6 6 7 7 7 6 7 6 6 6 6 6 6 7 7 7 7 6 7 6 6 6 5 6
5 5 5 5 5 5 5 5 5 5 5 6 6 6 6 6 6 6 6 6 6 6 6 6 6 6 6 7 7 6 6 6 6 6 6 6 6 7 7 7 6 6 6 5 6 5 5
5 5 5 5 5 5 5 5 5 5 5 5 5 5 5 5 5 5 5 6 6 6 6 6 7 7 7 7 7 6 6 6 6 6 6 6 6 6 6 6 6 6 6 5 5 5 4
5 5 5 5 5 5 5 5 5 5 5 5 5 5 5 5 5 5 5 5 5 6 6 6 6 7 7 7 7 6 6 6 6 6 6 6 6 6 6 6 5 5 5 5 5 4 4
5 5 5 5 5 5 5 5 5 5 5 5 5 5 5 5 5 5 5 5 5 6 6 6 6 6 6 6 6 6 6 6 6 6 5 5 5 6 6 5 5 5 4 5 5 4 4
4 5 5 5 5 5 5 5 5 5 5 5 5 5 5 5 5 5 5 5 5 6 6 6 6 6 7 6 6 6 6 5 5 5 5 5 5 6 5 5 5 4 4 4 5 4 4
4 4 4 4 4 4 5 5 5 5 5 5 5 5 5 5 5 5 5 5 5 5 7 6 6 6 6 6 6 6 5 5 5 5 5 5 6 5 5 4 4 4 4 5 5 4 3
4 4 4 4 4 4 4 5 5 5 5 5 5 5 5 5 5 5 4 4 4 4 4 7 6 6 5 5 5 6 5 4 4 5 4 4 5 5 5 4 4 4 4 5 3 3 4
3 4 4 4 4 4 4 4 4 4 5 5 5 5 5 5 5 5 4 4 4 3 4 5 5 6 5 5 5 5 5 4 4 4 4 4 5 5 5 5 4 4 5 4 3 3 3
3 3 4 4 4 4 4 4 4 4 5 5 5 5 5 4 4 4 3 3 3 3 -3 4 4 4 4 4 4 5 4 4 4 3 3 4 4 4 4 4 3 3 4 4 3 3 1
3 3 3 4 4 4 4 4 4 4 4 5 4 4 4 4 4 3 3 3 3 3 1 4 4 4 4 4 4 4 4 3 3 3 3 3 3 3 4 4 3 2 2 3 3 2 -1
3 3 3 3 3 3 4 4 4 4 4 3 3 3 3 3 3 3 2 2 2 2 4 3 3 3 4 4 3 3 3 3 3 2 3 2 3 3 3 3 3 2 1 1 -1 -2 -2
2 2 3 3 3 3 3 3 3 3 2 3 3 3 3 3 3 3 3 2 1 2 3 3 2 2 2 2 2 2 2 2 2 2 1 0 2 3 3 3 2 2 1 2 -0 -3 -1
2 2 2 3 3 2 2 2 2 2 2 2 2 2 2 2 2 2 2 1 1 1 1 1 1 1 1 1 1 1 1 1 1 1 1 1 2 2 2 2 1 1 1 1 1 0 -1
2 2 2 2 1 1 1 1 1 1 1 2 1 1 2 1 1 1 1 1 0 0 0 -0 -1 -0 -1 -0 -0 0 -0 0 1 1 1 1 1 1 1 1 1 1 1 1 0 -2 -2
2 2 1 1 1 1 1 1 1 0 1 1 1 1 1 1 1 1 1 0 -0 -0 -1 -1 -1 -1 -1 -1 -1 -1 -1 -0 -0 -0 0 -0 -0 0 0 1 1 1 0 -0 0 0 -3
1 1 1 1 0 0 -0 -0 0 0 -0 0 0 0 1 1 0 -0 -0 -1 -1 -1 -1 -1 -1 -2 -2 -3 -3 -3 -2 -2 -2 -2 -2 -1 -1 -1 -1 -0 0 0 0 0 0 -0 -0
0 -0 -0 -0 -0 -1 -1 -1 -1 -1 -0 -0 -0 -0 0 -0 -1 -1 -1 -1 -2 -2 -2 -3 -3 -3 -4 -4 -5 -4 -3 -3 -3 -3 -3 -2 -2 -2 -1 -1 -1 -1 -1 -1 -1 -1 -1
-1 -1 -1 -1 -1 -1 -1 -2 -1 -1 -1 -1 -1 -1 -1 -1 -1 -2 -2 -2 -3 -3 -4 -4 -5 -6 -5 -5 -6 -6 -5 -5 -5 -5 -4 -4 -4 -3 -4 -2 -2 -2 -2 -2 -2 -2 -2
-1 -2 -2 -2 -2 -2 -2 -2 -1 -1 -1 -1 -1 -2 -1 -2 -3 -3 -4 -5 -5 -5 -6 -7 -7 -8 -9 -9 -8 -7 -7 -6 -6 -6 -6 -6 -5 -5 -4 -4 -4 -3 -3 -3 -3 -2 -3
-2 -2 -3 -3 -3 -2 -2 -2 -1 -1 -1 -2 -2 -2 -3 -3 -4 -5 -6 -8 -8 -8 -8 -8 -9 -9 -9 -10 -10 -10 -10 -8 -8 -7 -7 -7 -7 -6 -6 -5 -5 -5 -4 -4 -4 -4 -3
-3 -3 -3 -3 -3 -2 -2 -2 -1 -1 -1 -2 -2 -3 -3 -4 -5 -7 -9 -9 -9 -10 -9 -11 -11 -11 -11 -11 -11 -11 -11 -10 -10 -9 -9 -9 -8 -8 -7 -7 -6 -5 -5 -4 -4 -5 -4
-4 -3 -3 -3 -3 -3 -2 -2 -2 -2 -2 -3 -3 -4 -4 -6 -7 -8 -9 -10 -10 -11 -12 -12 -13 -13 -12 -13 -12 -12 -11 -10 -8 -7 -8 -10 -11 -10 -9 -8 -9 -6 -5 -5 -5 -6 -7
-4 -4 -4 -4 -3 -3 -3 -3 -3 -3 -4 -4 -5 -6 -7 -8 -10 -11 -11 -12 -12 -13 -13 -13 -13 -13 -13 -13 -13 -13 -12 -10 -9 -8 -8 -9 -11 -11 -9 -8 -7 -6 -6 -7 -7 -8 -8
-4 -4 -4 -4 -4 -4 -4 -4 -4 -5 -5 -6 -7 -8 -9 -11 -13 -13 -13 -13 -14 -13 -13 -13 -13 -13 -13 -13 -13 -13 -12 -12 -10 -10 -10 -9 -10 -11 -10 -9 -8 -11 -8 -8 -7 -9 -9
-4 -4 -4 -4 -5 -5 -5 -6 -6 -7 -7 -9 -10 -11 -12 -13 -13 -14 -13 -14 -14 -14 -14 -13 -14 -13 -13 -13 -13 -13 -13 -13 -12 -13 -12 -12 -12 -12 -11 -10 -10 -12 -9 -8 -9 -12 -13
-5 -5 -5 -5 -5 -6 -6 -7 -8 -9 -9 -10 -12 -12 -13 -14 -13 -13 -14 -14 -13 -14 -14 -14 -14 -14 -14 -14 -13 -13 -13 -12 -13 -13 -13 -14 -13 -12 -13 -11 -11 -12 -10 -12 -14 -13 -13
-5 -5 -5 -6 -7 -7 -8 -8 -9 -10 -11 -12 -12 -13 -13 -13 -13 -13 -14 -14 -14 -14 -14 -13 -14 -14 -14 -13 -14 -14 -14 -14 -13 -13 -13 -13 -14 -14 -14 -13 -14 -14 -13 -14 -14 -14 -13
Height
3154 3154 3154 3154 3154 3153 3153 3151 3150 3149 3148 3147 3145 3144 3142 3140 3138 3136 3134 3132 3130 3128 3127 3125 3124 3123 3122 3122 3122 3121 3120 3120 3119 3119 3118 3117 3116 3115 3114 3112 3111 3111 3110 3108 3106 3105 3103
3153 3154 3154 3153 3153 3153 3152 3151 3150 3149 3147 3146 3144 3143 3141 3140 3138 3135 3134 3132 3129 3127 3125 3123 3122 3121 3119 3119 3119 3118 3118 3118 3117 3117 3116 3115 3114 3113 3112 3111 3110 3108 3107 3105 3104 3102 3100
3153 3153 3153 3153 3152 3152 3151 3150 3149 3148 3147 3145 3144 3142 3140 3138 3136 3134 3132 3130 3128 3126 3124 3122 3121 3119 3118 3117 3116 3115 3115 3115 3115 3114 3113 3112 3112 3111 3110 3109 3107 3106 3105 3102 3101 3099 3095
3152 3152 3152 3152 3151 3150 3150 3148 3148 3147 3146 3144 3142 3141 3139 3136 3134 3132 3130 3128 3126 3124 3122 3120 3119 3117 3115 3114 3113 3113 3113 3112 3112 3112 3111 3110 3109 3108 3107 3106 3104 3103 3101 3098 3096 3094 3093
3150 3150 3150 3150 3149 3148 3148 3147 3146 3145 3144 3142 3141 3139 3137 3134 3131 3129 3127 3125 3123 3122 3120 3118 3117 3115 3114 3113 3112 3111 3111 3110 3109 3108 3107 3106 3106 3105 3105 3103 3102 3100 3097 3095 3093 3091 3089
3148 3148 3148 3147 3146 3145 3145 3144 3144 3143 3141 3140 3138 3136 3134 3131 3129 3126 3124 3122 3120 3119 3117 3115 3113 3115 3111 3111 3109 3108 3107 3107 3106 3105 3105 3104 3103 3102 3101 3100 3099 3098 3096 3094 3090 3089 3086
3146 3146 3146 3145 3144 3143 3143 3143 3142 3140 3138 3137 3135 3133 3130 3128 3125 3123 3122 3119 3120 3117 3113 3112 3111 3107 3107 3106 3105 3104 3103 3102 3102 3101 3101 3099 3099 3098 3097 3096 3095 3094 3092 3090 3088 3086 3082
3145 3145 3144 3144 3143 3142 3141 3140 3139 3137 3135 3133 3131 3129 3126 3124 3122 3119 3117 3115 3113 3113 3107 3107 3105 3102 3099 3099 3099 3098 3098 3099 3097 3097 3095 3097 3095 3094 3093 3092 3092 3091 3088 3085 3084 3081 3079
3144 3144 3144 3142 3141 3140 3139 3137 3135 3133 3131 3129 3128 3125 3123 3120 3118 3116 3113 3111 3108 3106 3104 3102 3098 3095 3095 3095 3093 3094 3095 3093 3092 3093 3093 3091 3092 3090 3089 3089 3087 3086 3083 3081 3080 3078 3076
3143 3142 3141 3140 3139 3138 3136 3134 3132 3130 3128 3126 3124 3121 3119 3117 3116 3112 3110 3107 3105 3102 3099 3097 3095 3094 3093 3092 3093 3092 3091 3093 3092 3090 3089 3087 3087 3086 3085 3084 3083 3080 3079 3077 3076 3074 3072
3140 3140 3139 3138 3136 3135 3133 3131 3130 3128 3125 3123 3120 3117 3114 3111 3109 3107 3107 3104 3103 3102 3101 3096 3094 3093 3092 3094 3092 3091 3089 3088 3088 3087 3088 3086 3083 3083 3081 3080 3079 3075 3074 3072 3072 3070 3068
3138 3137 3136 3135 3133 3131 3129 3128 3126 3123 3121 3118 3115 3112 3109 3107 3104 3102 3101 3101 3101 3103 3096 3093 3092 3091 3091 3090 3089 3087 3086 3086 3086 3083 3081 3079 3079 3077 3076 3074 3073 3071 3071 3069 3066 3065 3066
3134 3133 3132 3132 3130 3128 3126 3124 3122 3119 3116 3114 3112 3108 3106 3104 3102 3099 3097 3098 3101 3097 3095 3092 3090 3089 3088 3088 3086 3085 3083 3081 3081 3080 3075 3073 3070 3069 3069 3068 3067 3067 3067 3065 3065 3063 3059
3130 3130 3130 3128 3126 3124 3121 3119 3116 3114 3111 3110 3108 3105 3102 3101 3098 3096 3095 3097 3096 3091 3091 3089 3086 3086 3084 3085 3083 3079 3076 3075 3075 3074 3070 3068 3064 3064 3062 3062 3061 3060 3063 3061 3060 3060 3052
3128 3127 3125 3124 3122 3120 3117 3115 3112 3110 3108 3106 3105 3102 3100 3098 3095 3093 3093 3093 3090 3089 3087 3085 3085 3081 3079 3079 3079 3077 3073 3071 3069 3069 3069 3065 3061 3061 3060 3059 3059 3057 3057 3058 3055 3052 3051
3125 3123 3121 3119 3116 3115 3113 3112 3109 3107 3105 3102 3101 3099 3097 3094 3092 3090 3089 3088 3087 3085 3084 3083 3081 3080 3077 3075 3076 3075 3069 3067 3065 3064 3063 3061 3058 3055 3056 3055 3055 3054 3055 3054 3053 3053 3049
3121 3119 3118 3116 3114 3112 3110 3108 3106 3103 3101 3098 3096 3095 3094 3091 3089 3088 3086 3084 3084 3081 3080 3080 3077 3074 3073 3071 3069 3068 3065 3063 3059 3059 3058 3056 3055 3052 3052 3051 3050 3050 3048 3049 3049 3047 3045
3117 3116 3115 3113 3112 3110 3108 3105 3102 3101 3097 3096 3093 3092 3090 3087 3088 3085 3082 3080 3079 3078 3077 3073 3072 3068 3066 3064 3061 3061 3058 3057 3055 3052 3052 3052 3049 3045 3044 3045 3044 3043 3043 3044 3042 3041 3038
3114 3113 3112 3110 3109 3107 3105 3102 3099 3096 3094 3091 3089 3088 3087 3086 3082 3080 3078 3077 3074 3071 3068 3067 3066 3063 3062 3059 3059 3054 3053 3049 3048 3048 3045 3044 3043 3040 3037 3038 3037 3036 3036 3036 3036 3035 3032
3111 3110 3109 3107 3105 3103 3101 3099 3096 3093 3090 3088 3086 3085 3083 3080 3079 3077 3074 3072 3069 3066 3061 3060 3059 3058 3055 3051 3053 3047 3047 3045 3041 3040 3040 3039 3036 3036 3033 3033 3034 3032 3031 3031 3031 3030 3028
3108 3106 3105 3103 3100 3098 3097 3095 3092 3090 3087 3085 3082 3080 3078 3076 3073 3072 3069 3067 3063 3060 3057 3056 3054 3054 3048 3045 3041 3041 3039 3036 3036 3036 3034 3033 3028 3028 3025 3026 3027 3025 3023 3024 3024 3024 3024
3104 3103 3100 3098 3096 3094 3092 3090 3088 3085 3083 3082 3079 3076 3073 3071 3068 3066 3062 3059 3057 3054 3052 3050 3050 3046 3044 3041 3040 3030 3031 3032 3028 3028 3030 3028 3022 3020 3017 3019 3019 3015 3015 3016 3014 3016 3017
3101 3099 3098 3095 3092 3089 3087 3085 3081 3080 3078 3075 3073 3069 3068 3064 3062 3060 3056 3053 3051 3048 3047 3046 3042 3038 3036 3034 3031 3028 3026 3022 3019 3019 3020 3022 3018 3017 3010 3013 3012 3009 3007 3005 3007 3008 3008
3096 3095 3094 3092 3089 3085 3082 3079 3077 3073 3071 3069 3067 3064 3060 3058 3056 3053 3050 3049 3047 3046 3042 3039 3038 3032 3031 3026 3022 3020 3015 3010 3008 3006 3007 3005 3010 3013 3008 3011 3009 3004 3002 3000 2999 3000 3000
3092 3091 3089 3087 3083 3080 3077 3074 3070 3067 3065 3062 3058 3055 3050 3048 3046 3046 3046 3043 3041 3039 3036 3032 3031 3028 3024 3022 3017 3010 3006 3002 3000 2998 2997 2997 3000 3004 3003 3000 2997 2996 2999 2997 2996 2998 2995
3088 3086 3084 3082 3079 3076 3072 3068 3065 3062 3058 3055 3052 3048 3045 3042 3041 3041 3039 3038 3034 3031 3028 3028 3026 3024 3021 3017 3016 3011 3008 3005 3000 2998 2994 2991 2990 2996 2997 2997 2993 2994 2990 2991 2990 2992 2992
3083 3081 3079 3078 3074 3070 3067 3064 3060 3057 3052 3050 3047 3043 3039 3038 3039 3038 3035 3033 3032 3028 3024 3021 3018 3016 3016 3011 3012 3010 3006 3004 3001 2999 2996 2994 2993 2991 2993 2991 2990 2988 2985 2984 2984 2994 2988
3079 3076 3075 3072 3068 3065 3062 3058 3055 3052 3048 3046 3044 3040 3037 3034 3037 3035 3032 3030 3028 3026 3022 3020 3016 3013 3012 3011 3009 3007 3004 3002 3000 3000 2999 2999 2996 2992 2991 2989 2989 2986 2985 2986 2990 2988 2986
3074 3071 3069 3066 3064 3060 3056 3053 3051 3048 3044 3042 3042 3038 3035 3034 3034 3032 3029 3026 3024 3023 3020 3017 3016 3013 3011 3008 3007 3003 3002 3000 2999 2997 2997 2998 2998 2997 2998 2991 2990 2989 2988 2988 2985 2984 2982
Wind_Speed
2 2 3 4 5 6 7 7 8 9 9 11 13 14 14 15 14 14 14 13 12 11 12 12 12 12 12 11 11 11 10 8 8 7 7 6 5 4 5 8 8 7 9 9 11 12 16
3 3 5 5 6 7 7 8 8 9 10 11 12 13 14 15 15 15 15 15 14 13 12 11 11 12 12 11 9 9 9 9 8 7 7 7 6 6 5 7 7 11 9 10 11 15 19
4 5 6 6 7 8 8 8 9 10 11 12 13 15 16 16 16 15 14 14 14 14 14 15 13 11 9 9 9 9 10 10 10 9 8 7 7 7 8 8 8 10 10 11 14 17 20
5 6 6 7 8 8 9 9 8 9 10 12 12 14 16 17 17 16 15 15 14 13 13 14 13 16 14 11 9 10 11 10 11 11 10 9 8 8 9 9 9 8 12 16 17 17 18
5 6 6 7 8 8 8 7 7 10 11 11 12 14 16 18 18 17 16 16 16 16 16 16 17 15 10 8 11 13 12 12 12 13 13 12 11 10 11 12 11 8 11 18 18 17 18
5 5 6 6 7 7 7 7 9 11 13 14 14 16 19 18 19 18 18 17 17 18 18 18 18 12 14 21 18 17 16 17 16 15 14 14 12 12 13 13 8 8 16 19 21 15 20
5 6 6 6 7 8 10 12 14 16 16 15 16 18 21 20 20 20 19 19 18 19 16 18 21 23 23 22 20 19 19 19 19 17 16 15 13 13 10 12 14 15 20 23 19 17 21
7 7 6 8 9 10 11 13 15 16 17 18 19 19 20 20 19 20 20 20 20 22 22 20 20 22 23 21 21 22 19 19 19 16 17 17 18 13 11 11 17 22 22 23 19 17 20
8 9 9 10 12 14 16 17 17 17 17 18 19 19 19 21 20 20 20 21 22 24 25 25 24 16 14 14 15 15 13 15 16 18 17 19 16 16 15 17 22 20 23 22 22 23 26
10 11 13 15 16 17 18 18 19 19 18 17 18 20 21 23 22 22 21 21 22 23 20 9 8 7 6 6 8 8 11 15 17 16 14 14 15 15 16 17 19 20 20 18 17 21 12
12 13 14 16 16 18 18 18 16 18 20 22 23 26 26 25 25 24 22 20 19 17 6 7 7 7 10 9 11 14 14 14 16 17 18 16 19 21 23 27 23 24 19 18 19 21 15
12 13 15 16 16 16 16 18 20 23 26 26 26 24 22 20 19 19 18 16 14 5 6 6 9 12 14 15 15 15 19 19 19 20 22 27 25 26 27 27 24 21 20 17 17 16 4
12 13 13 14 16 18 20 24 26 27 26 24 22 19 19 18 17 16 14 12 5 6 4 4 9 14 18 19 25 27 25 23 19 19 30 24 26 26 21 22 20 22 16 3 2 2 6
12 11 14 17 20 23 26 26 24 22 21 20 20 20 18 18 15 14 12 9 7 6 10 16 22 25 24 25 23 19 20 23 22 22 23 16 15 12 14 18 16 11 14 5 5 4 4
12 15 18 22 24 23 22 21 21 21 21 21 21 20 18 15 16 14 12 7 6 8 12 17 23 27 21 5 10 15 23 20 15 11 16 7 9 8 14 15 11 10 15 12 9 8 2
16 19 21 20 18 17 17 18 20 22 20 19 19 19 17 17 16 15 12 10 11 16 20 21 23 14 22 24 21 20 18 15 21 16 15 18 18 16 16 18 16 18 14 7 8 2 4
19 18 17 16 16 17 18 19 19 20 22 21 19 20 16 17 15 14 12 14 15 17 19 18 20 24 28 30 29 27 23 24 28 27 25 22 20 25 20 18 18 16 17 15 12 12 4
15 14 15 16 17 18 20 22 21 19 18 18 17 18 18 16 16 17 13 16 18 19 19 22 24 24 25 23 28 25 22 20 27 27 27 20 11 19 21 16 18 20 21 22 17 7 11
14 14 15 16 17 19 21 22 22 19 18 18 18 18 17 17 14 17 17 18 21 25 23 19 18 23 24 24 19 13 10 15 16 20 12 14 12 12 14 16 18 17 14 17 21 18 18
13 14 15 18 19 20 20 20 20 20 20 20 22 19 20 21 10 18 24 22 18 21 24 26 25 22 25 27 22 21 16 18 19 20 20 16 22 19 18 14 18 28 26 20 15 12 10
14 16 19 20 20 19 19 20 20 20 21 22 22 22 20 23 23 20 23 23 24 23 23 20 17 10 20 21 26 22 27 33 31 25 23 23 33 32 37 34 32 37 40 35 24 28 24
17 18 18 19 21 21 21 21 23 23 24 24 24 23 22 23 21 20 19 17 22 24 26 27 21 24 25 26 24 37 36 33 34 30 22 19 22 18 28 24 23 31 34 36 38 35 36
18 18 19 20 21 23 24 24 26 26 25 26 27 28 25 24 21 20 17 18 21 25 25 13 18 24 28 31 34 36 37 38 39 38 36 31 24 16 21 13 12 18 14 15 23 18 23
17 19 20 21 22 25 27 29 30 31 32 31 30 29 27 22 18 19 22 24 28 29 26 29 22 21 26 26 32 37 39 37 31 28 31 41 31 25 19 11 5 10 9 4 11 15 10
17 18 19 21 23 26 28 30 32 33 33 32 31 29 29 26 25 15 17 21 22 24 25 26 23 22 23 27 33 27 24 12 7 9 10 20 26 19 8 16 12 19 6 7 7 4 6
17 19 21 23 25 26 28 29 31 33 34 31 30 29 27 28 14 19 22 16 23 24 23 20 20 22 19 22 18 14 13 18 8 15 6 9 17 26 10 6 4 9 11 7 10 10 6
19 20 22 24 26 27 29 30 30 31 31 27 25 25 25 25 19 22 15 22 23 24 26 26 26 25 24 24 20 16 14 17 10 9 16 12 2 28 23 12 4 12 15 12 4 7 14
20 22 24 25 27 29 29 29 28 25 24 22 18 20 23 24 17 18 20 23 14 19 21 27 29 16 22 14 9 8 17 14 14 17 14 13 12 9 7 13 4 20 19 13 13 15 15
22 24 25 27 27 28 28 26 23 21 21 20 15 16 20 21 21 20 13 15 13 12 18 20 19 17 22 11 18 15 18 14 14 16 9 3 15 15 12 13 26 14 15 20 26 28 29
Wind_Direction
221 301 332 339 346 350 350 356 359 1 1 2 3 2 358 356 354 353 349 345 338 334 329 323 317 316 313 307 303 294 301 304 306 304 304 311 319 337 353 359 359 1 357 348 345 344 338
250 286 304 325 335 337 336 339 342 342 346 347 348 349 348 346 346 346 344 343 341 338 331 326 317 315 314 307 304 287 298 293 295 294 291 298 311 322 326 339 340 334 350 345 343 338 338
267 287 307 322 324 328 326 329 332 336 341 343 344 341 339 337 335 333 334 335 336 336 337 332 320 321 320 307 305 283 290 281 287 281 275 282 293 303 308 318 320 318 321 328 337 337 338
283 297 306 316 320 320 323 331 333 338 339 340 345 347 343 338 331 324 321 319 320 324 326 334 327 326 314 306 306 291 284 273 280 277 274 270 276 283 293 293 303 298 309 325 326 330 327
284 296 307 312 317 318 317 320 331 334 331 330 331 332 330 328 328 324 318 313 313 312 314 316 312 316 318 318 320 310 293 280 277 278 273 273 275 278 286 285 286 279 299 312 314 318 318
286 292 294 297 301 302 302 299 306 316 318 314 311 315 318 319 320 322 317 313 310 309 309 304 304 304 298 303 303 301 291 282 280 276 274 275 271 277 283 279 281 287 293 304 305 311 313
275 278 282 290 297 300 298 300 302 303 307 311 308 308 310 314 315 314 313 314 314 310 303 299 295 295 293 293 293 296 291 279 275 276 275 271 266 275 267 272 282 289 292 296 305 305 301
271 273 278 292 299 301 302 303 305 305 305 304 304 305 307 310 309 310 312 314 312 310 309 301 298 293 285 281 281 287 284 274 266 270 272 272 277 274 274 275 271 274 284 294 299 307 287
277 278 286 301 301 301 302 304 305 305 306 306 307 309 309 308 305 305 305 305 305 306 310 311 306 301 294 283 276 278 278 265 262 266 273 270 275 281 279 271 272 275 280 293 290 295 298
287 288 297 304 305 303 304 306 307 309 310 314 314 311 309 306 307 305 302 300 306 314 316 312 320 312 327 320 287 310 286 267 267 276 272 273 274 270 275 273 272 275 282 282 275 296 303
293 297 298 298 303 307 308 309 314 313 313 311 311 311 311 309 305 301 304 308 309 319 344 317 315 316 321 313 301 302 295 285 273 266 270 271 283 288 285 288 284 277 280 275 284 291 297
292 296 300 303 305 306 308 309 309 308 309 310 312 313 317 321 319 308 300 307 312 294 255 303 301 312 313 301 303 307 302 294 286 273 274 288 289 281 286 286 278 270 272 268 272 263 258
291 296 298 302 305 306 308 308 307 307 308 310 312 317 320 320 321 318 306 300 287 219 291 274 291 299 302 310 307 304 299 290 285 290 292 293 283 288 277 273 268 260 251 275 303 181 226
286 291 301 306 308 307 307 308 309 310 312 315 317 317 319 320 320 320 316 298 241 253 244 268 285 289 293 305 300 293 289 289 296 295 279 283 295 269 274 274 262 254 221 215 226 218 234
284 295 302 304 305 310 313 314 316 317 318 318 318 317 316 315 317 316 313 274 261 263 274 278 287 290 295 245 307 297 290 298 292 283 263 261 269 298 286 280 243 226 232 264 264 263 249
291 299 303 307 313 315 314 315 317 314 314 316 316 318 321 317 313 314 305 285 256 270 285 292 296 285 284 284 281 279 276 276 283 276 259 262 279 281 272 256 252 246 260 232 220 256 253
299 304 310 312 314 316 314 312 312 314 315 316 322 324 319 314 316 315 302 289 279 288 294 295 294 287 287 293 292 285 274 272 276 277 277 275 267 273 263 261 268 263 249 237 246 242 216
303 307 305 306 310 312 312 312 313 315 318 321 327 324 319 319 314 304 293 296 300 300 296 295 293 287 286 288 291 290 282 277 268 273 282 275 263 267 269 262 264 268 264 261 236 248 240
300 301 304 306 307 309 312 314 314 319 322 323 327 322 315 311 308 303 302 301 298 298 298 295 285 285 282 280 281 273 270 275 275 275 273 264 249 269 274 259 249 249 245 240 246 260 255
300 304 303 304 308 313 316 316 317 325 325 328 326 322 319 313 308 303 300 298 293 295 295 294 293 291 286 281 275 270 266 266 265 266 266 263 256 249 251 259 283 291 286 281 258 253 259
301 304 306 310 311 317 317 318 322 323 326 327 322 318 318 304 302 295 294 294 296 293 285 283 290 288 294 293 285 280 262 263 260 267 272 265 265 266 267 273 274 272 271 273 258 255 257
302 304 309 314 316 320 322 322 321 326 323 322 319 318 314 306 298 296 299 291 290 283 282 288 279 267 264 280 283 288 281 274 283 279 271 258 263 269 275 276 274 272 268 269 267 270 268
305 309 313 316 320 322 321 322 323 319 320 322 320 314 311 306 305 300 293 284 282 283 293 282 285 286 284 285 285 285 284 282 278 279 277 264 259 266 273 293 291 280 305 285 271 256 256
310 312 316 320 323 323 323 325 323 324 323 321 317 313 311 310 304 296 285 280 285 292 289 292 303 299 300 297 295 293 292 291 288 280 261 258 257 257 264 274 252 242 309 281 196 187 179
309 312 317 321 323 323 323 323 323 322 319 319 319 320 319 322 324 323 317 310 306 297 294 298 293 288 308 306 311 322 327 309 329 335 288 254 244 231 230 210 246 280 275 196 318 275 205
311 315 319 321 322 320 320 321 319 318 319 322 323 323 322 323 312 332 330 339 332 329 323 316 304 288 312 304 301 297 296 297 285 326 26 326 245 221 208 224 241 336 255 229 259 194 243
312 317 319 319 319 320 321 319 320 321 320 324 326 325 323 321 332 332 331 322 326 319 314 318 320 310 298 287 279 290 301 299 292 1 348 11 244 223 226 240 217 339 321 271 195 316 338
315 317 317 319 321 321 320 321 321 322 322 328 334 323 320 322 344 334 315 318 316 324 317 319 321 321 316 323 277 294 299 299 309 319 326 328 330 6 319 227 250 324 317 4 333 321 318
317 318 320 321 320 319 320 319 319 325 328 329 340 322 320 320 323 319 330 311 319 325 332 328 323 321 310 307 324 297 299 269 318 322 11 354 327 312 299 288 310 317 309 306 307 310 306